Weather History for Berlin, NH

Change the Weather History Date:

Monday, December 31, 2012

  Actual Average Record
Temperature  
Mean Temperature 19 °F -  
Max Temperature 28 °F 24 °F 48 °F (2004)
Min Temperature 10 °F 4 °F -11 °F (2005)
Degree Days  
Heating Degree Days 46    
Moisture  
Dew Point 13 °F    
Average Humidity 75    
Maximum Humidity 85    
Minimum Humidity 67    
Precipitation  
Precipitation 0.00 in - - ()
Sea Level Pressure  
Sea Level Pressure 29.84 in    
Wind  
Wind Speed 5 mph (WNW)    
Max Wind Speed 12 mph    
Max Gust Speed 22 mph    
Visibility 7 miles    
Events Snow    
Averages and records for this station are not official NWS values.
T = Trace of Precipitation, MM = Missing Value Source: NWS Daily Summary

Daily Weather History Graph

Daily Weather History Graph

Search for Another Location

Airport:

Trip Planner

Search our weather history database for the weather conditions in past years. The results will help you decide how hot, cold, wet, or windy it might be!

Date:

Astronomy

Dec. 31, 2012 Rise Set
Actual Time 7:21 AM EST 4:14 PM EST
Civil Twilight 6:48 AM EST 4:48 PM EST
Nautical Twilight 6:11 AM EST 5:24 PM EST
Astronomical Twilight 5:35 AM EST 6:00 PM EST
Moon 7:51 PM EST (12/31) 8:53 AM EST (12/31)
Length of Visible Light 9h 59m
Length of Day
8h 53m
Waning Gibbous, 90% of the Moon is Illuminated
Dec 31
Waning Gibbous
Jan 4
Last Quarter
Jan 11
New
Jan 18
First Quarter
Jan 26
Full

Hourly Weather History & Observations

Time (EST) Temp. Windchill Dew Point Humidity Pressure Visibility Wind Dir Wind Speed Gust Speed Precip Events Conditions
12:52 AM 10.0 °F -2.9 °F 1.0 °F 67% 29.93 in 10.0 mi NW 9.2 mph 18.4 mph N/A   Clear
1:52 AM 10.0 °F -0.9 °F 1.0 °F 67% 29.96 in 10.0 mi NW 6.9 mph - N/A   Clear
2:52 AM 10.0 °F 3.6 °F 1.9 °F 70% 29.98 in 10.0 mi Variable 3.5 mph - N/A   Overcast
3:52 AM 12.0 °F 5.9 °F 3.9 °F 70% 29.98 in 10.0 mi East 3.5 mph - N/A   Overcast
4:52 AM 12.9 °F - 3.9 °F 67% 29.97 in 10.0 mi Calm Calm - N/A   Overcast
5:52 AM 14.0 °F 5.1 °F 5.0 °F 67% 29.96 in 10.0 mi SW 5.8 mph - N/A   Overcast
6:52 AM 14.0 °F 3.9 °F 6.1 °F 71% 29.97 in 8.0 mi WSW 6.9 mph - N/A   Overcast
7:52 AM 16.0 °F 7.4 °F 8.1 °F 71% 29.97 in 4.0 mi Variable 5.8 mph - 0.00 in Snow Light Snow
8:11 AM 15.8 °F 3.4 °F 8.6 °F 73% 29.89 in 2.0 mi West 10.4 mph 21.9 mph 0.00 in Snow Light Snow
8:18 AM 15.8 °F 2.7 °F 8.6 °F 73% 29.89 in 1.8 mi West 11.5 mph 21.9 mph 0.00 in Snow Light Snow
8:34 AM 15.8 °F 6.1 °F 8.6 °F 73% 29.89 in 1.2 mi Variable 6.9 mph - 0.00 in Snow Light Snow
8:41 AM 15.8 °F 6.1 °F 8.6 °F 73% 29.89 in 1.5 mi West 6.9 mph - 0.00 in Snow Light Snow
8:52 AM 16.0 °F 5.3 °F 10.0 °F 77% 29.96 in 1.5 mi WNW 8.1 mph - 0.00 in Snow Light Snow
9:42 AM 17.6 °F 10.7 °F 10.4 °F 73% 29.88 in 2.5 mi Variable 4.6 mph - 0.00 in Snow Light Snow
9:52 AM 18.0 °F - 10.9 °F 74% 29.96 in 3.0 mi Calm Calm - 0.00 in Snow Light Snow
10:12 AM 19.4 °F 9.5 °F 12.2 °F 74% 29.88 in 2.5 mi WNW 8.1 mph - 0.00 in Snow Light Snow
10:24 AM 19.4 °F 10.4 °F 12.2 °F 74% 29.88 in 4.0 mi Variable 6.9 mph - 0.00 in Snow Light Snow
10:52 AM 19.9 °F 12.1 °F 12.0 °F 71% 29.94 in 10.0 mi NW 5.8 mph - 0.00 in   Overcast
11:52 AM 21.9 °F 17.2 °F 14.0 °F 72% 29.91 in 10.0 mi Variable 3.5 mph - 0.00 in   Overcast
12:52 PM 21.9 °F - 15.1 °F 75% 29.88 in 10.0 mi Calm Calm - N/A   Overcast
1:52 PM 24.1 °F 18.2 °F 16.0 °F 71% 29.84 in 6.0 mi NNW 4.6 mph - N/A   Haze
2:02 PM 23.0 °F - 15.8 °F 74% 29.78 in 9.0 mi Calm Calm - N/A   Overcast
2:43 PM 24.8 °F 20.5 °F 17.6 °F 74% 29.78 in 7.0 mi North 3.5 mph - N/A   Overcast
2:52 PM 24.1 °F - 17.1 °F 75% 29.84 in 7.0 mi Calm Calm - N/A   Overcast
3:52 PM 24.1 °F - 17.1 °F 75% 29.82 in 10.0 mi Calm Calm - N/A   Overcast
4:52 PM 24.1 °F - 18.0 °F 77% 29.81 in 10.0 mi Calm Calm - N/A   Overcast
5:52 PM 23.0 °F - 18.0 °F 81% 29.79 in 8.0 mi Calm Calm - N/A   Overcast
6:52 PM 23.0 °F - 19.0 °F 85% 29.78 in 9.0 mi Calm Calm - N/A   Overcast
7:52 PM 23.0 °F - 19.0 °F 85% 29.76 in 9.0 mi Calm Calm - N/A   Overcast
8:21 PM 24.8 °F - 19.4 °F 80% 29.68 in 10.0 mi Calm Calm - N/A   Overcast
8:47 PM 24.8 °F - 19.4 °F 80% 29.67 in 10.0 mi Calm Calm - N/A   Overcast
8:52 PM 25.0 °F - 19.9 °F 81% 29.73 in 10.0 mi Calm Calm - N/A   Overcast
9:07 PM 24.8 °F - 19.4 °F 80% 29.65 in 6.0 mi Calm Calm - 0.00 in Snow Light Snow
9:34 PM 24.8 °F - 19.4 °F 80% 29.64 in 6.0 mi Calm Calm - 0.00 in Snow Light Snow
9:52 PM 24.1 °F - 19.9 °F 84% 29.70 in 8.0 mi Calm Calm - 0.00 in   Overcast
10:52 PM 28.0 °F 20.8 °F 21.0 °F 75% 29.67 in 7.0 mi SSW 6.9 mph - 0.00 in Snow Light Snow
11:52 PM 26.1 °F - 21.9 °F 84% 29.64 in 9.0 mi Calm Calm - 0.00 in   Overcast